Orbital Elements at Epoch 2459000.5 (2020-May-31.0) TDB
Reference: JPL 17 (heliocentric ecliptic J2000)
Element | Value | Uncertainty (1-sigma) | Units |
e | .01644452174031372 | 4.7418e-08 | |
a | 3.10909004171648 | 3.7908e-08 | au |
q | 3.057962542932881 | 1.4056e-07 | au |
i | 11.09740043638462 | 7.0036e-06 | deg |
node | 177.9718471398115 | 2.8026e-05 | deg |
peri | 101.575133986021 | 0.00023309 | deg |
M | 153.1811208718893 | 0.00023365 | deg |
tp | 2458148.477391878047 (2018-Jan-29.97739188) | 0.0012956 | TDB |
period | 2002.388657153323 5.48 | 3.6621e-05 1.003e-07 | d yr |
n | .1797852773056509 | 3.2881e-09 | deg/d |
Q | 3.16021754050008 | 3.8531e-08 | au |
|
| | Orbit Determination Parameters
Additional Information
|